Regional Weather Roundup
Issued by NWS

Home | Current Version | Previous Version | Graphics & Text | Print | Product List | Glossary Off
Versions: 1 2 3 4 5 6 7 8 9 10 11 12 13 14 15 16 17 18 19 20 21 22 23 24 25 26 27 28 29 30 31 32 33 34 35 36 37 38 39 40 41 42 43 44 45 46 47 48 49 50

000
ASUS43 KLOT 231510
RWRIL

ILLINOIS REGIONAL WEATHER ROUNDUP
NATIONAL WEATHER SERVICE CHICAGO/ROMEOVILLE IL
1000 AM CDT SAT AUG 23 2014

NOTE: "FAIR" INDICATES FEW OR NO CLOUDS BELOW 12,000 FEET WITH NO
SIGNIFICANT WEATHER AND/OR OBSTRUCTIONS TO VISIBILITY.

* THESE STATIONS ARE NOT UNDER NWS QUALITY CONTROL. THEY ALSO MAY NOT
  REPORT WEATHER SUCH AS PRECIPITATION OR FOG.

ILZ001-002-007-009-015-016-024-231600-
NORTHWEST ILLINOIS

CITY           SKY/WX    TMP DP  RH WIND       PRES   REMARKS
MOLINE         TSTM      72  69  90 NW8       30.01R FOG
STERLING*      CLOUDY    81  75  83 CALM      29.99R HX  86
SAVANNA*       CLOUDY    78  74  88 S3        29.99R HX  81
$$

ILZ003-004-008-010-011-017-018-231600-
NORTH CENTRAL ILLINOIS

CITY           SKY/WX    TMP DP  RH WIND       PRES   REMARKS
ROCKFORD       CLOUDY    78  73  84 SE7       30.01R HX  81
FREEPORT*      CLOUDY    78  76  94 SE3       30.01S HX  80
ROCHELLE*      CLOUDY    80  73  81 CALM      30.00R HX  83
DE KALB*       CLOUDY    76  73  91 E7        30.01S FOG
PERU*          PTSUNNY   81  75  80 S5        29.99R HX  87
$$

ILZ005-006-012>014-019>023-231600-
NORTHEAST ILLINOIS

CITY           SKY/WX    TMP DP  RH WIND       PRES   REMARKS
CHICAGO-OHARE  CLOUDY    81  73  76 CALM      29.98F HAZE    HX  86
CHICAGO-MIDWAY CLOUDY    83  75  77 S5        29.98S HX  90
AURORA         PTSUNNY   82  73  74 SE7       29.99S HX  87
LANSING*       MOSUNNY   82  73  75 CALM      29.99S HX  87
JOLIET*        MOSUNNY   81  72  74 SE5       29.99S HX  86
WAUKEGAN       CLOUDY    73  71  93 CALM      30.00S FOG
DUPAGE AIRPORT PTSUNNY   83  74  74 SE6       29.99S HX  89
KANKAKEE*      MOSUNNY   81  74  78 SE6       30.00S HX  87
WHEELING       PTSUNNY   80  73  79 VRB3      30.00F HX  84
MORRIS*        MOSUNNY   82  75  78 SE7       29.98R HX  89
ROMEOVILLE*    MOSUNNY   81  76  85 S6        30.00R HX  86
NORTHERLY ISL    N/A     73  71  93 NE3         N/A
$$

LMZ740>746-231600-
SOUTHERN LAKE MICHIGAN

STATION/POSITION SKY/WX   TEMP    WIND        PRES    VSBY  WAVE
                          AIR SEA DIR/SP/G                  HT/PER
                          (F)     (DEG/KT/KT) (MB)    (MI)  (FT/S)
SOUTHERN BUOY              69 69   90/ 10/ 12 1016.2R         1
WAUKEGAN HARBOR            71      70/  3/  6   N/A
HARRISON CRIB              72      20/  3/  4   N/A
BURNHAM HARBOR             73      30/  2/  5   N/A
CALUMET HARBOR             75      40/  4/  6 1014.4S
MICHIGAN CITY              77     290/  3/  4   N/A
MICHIGAN CITY 6N           76 76  350/  2/  2   N/A           0
ST. JOSEPH                 74 73  100/  6/  8   N/A           0
$$

ILZ025>027-034>036-040-047-049-050-058-095>099-231600-
WEST-CENTRAL ILLINOIS

CITY           SKY/WX    TMP DP  RH WIND       PRES   REMARKS
QUINCY         MOSUNNY   81  72  74 N12       29.98R HX  85
GALESBURG*     TSTM      72  69  92 N13       29.96S
MACOMB*        LGT RAIN  74  70  88 NW13G21   30.00R
JACKSONVILLE*  MOSUNNY   86  78  77 W6        29.98R HX  99
PITTSFIELD*    MOSUNNY   85  75  70 W7        29.98R HX  94
$$

ILZ028>032-037-038-041>044-048-051>054-059>061-231600-
CENTRAL ILLINOIS

CITY           SKY/WX    TMP DP  RH WIND       PRES   REMARKS
PONTIAC        MOSUNNY   82  79  89 SE7       29.98R HX  93
DECATUR        CLOUDY    83  77  82 CALM      29.98R HX  92
PEORIA         PTSUNNY   82  76  81 SE5       29.97R HX  89
LACON*         CLOUDY    78  75  89 CALM      29.97R HX  82
LINCOLN*       SUNNY     84  78  81 CALM      29.94S HX  95
SPRINGFIELD    MOSUNNY   85  78  80 W7        29.97R HX  96
TAYLORVILLE    SUNNY     82  77  83 SW8       29.97R HX  91
$$

ILZ033-039-045-046-055>057-062-063-231600-
EAST-CENTRAL ILLINOIS

CITY           SKY/WX    TMP DP  RH WIND       PRES   REMARKS
CHAMPAIGN      CLOUDY    78  77  96 E6        29.99R FOG     HX  81
DANVILLE*      RAIN      80  77  91 SE6       29.97S HX  85
RANTOUL*       MOSUNNY   82  76  81 SE6       30.00R HX  90
MATTOON        CLOUDY    79  77  94 S3        29.98R FOG     HX  83
PARIS*         CLOUDY    78  78 100 CALM      29.99S FOG
$$

ILZ079-100>102-231600-
SOUTHWEST ILLINOIS

CITY           SKY/WX    TMP DP  RH WIND       PRES   REMARKS
ALTON          SUNNY     86  81  84 W9        29.97S HX 102
BELLEVILLE     SUNNY     88  78  70 SW6       29.96S HX 101
CAHOKIA*       SUNNY     90  73  57 W7        29.96S HX  98
SPARTA*        SUNNY     84  76  77 W6        29.99S HX  92
$$

ILZ064>066-069>071-074>076-080>082-084>086-088>090-092>094-231600-
SOUTH-CENTRAL ILLINOIS

CITY           SKY/WX    TMP DP  RH WIND       PRES   REMARKS
CARBONDALE     SUNNY     86  76  71 W3        29.98R HX  96
CAIRO*         SUNNY     86  78  75 W5        30.00R HX  98
MARION         PTSUNNY   86  77  74 W7        29.99R HX  97
MT. VERNON     PTSUNNY   84  75  74 W6        29.98R HX  92
CENTRALIA*     MOSUNNY   90  76  64 W8        29.98R HX 101
SALEM*         SUNNY     86  78  78 SW7       29.97S HX  98
METROPOLIS*    MOSUNNY   80  76  87 CALM      29.99S HX  84
$$

ILZ067-068-072-073-078-083-087-091-231600-
SOUTHEAST ILLINOIS

CITY           SKY/WX    TMP DP  RH WIND       PRES   REMARKS
LAWRENCEVILLE  SUNNY     83  77  82 CALM      29.97R HX  92
FLORA*         SUNNY     83  78  83 S3        29.97S HX  94
FAIRFIELD*     SUNNY     86  81  84 SW6       29.97R HX 102
HARRISBURG*    MOSUNNY   81  78  91 W6        29.99R HX  90
ROBINSON*      SUNNY     84  78  83 CALM      29.98R HX  95
CARMI*         MOSUNNY   88  81  79 SW5       29.97R HX 105
$$

ABBREVIATIONS USED IN REMARKS
   TC - TEMPERATURE IN CELSIUS
  WCI - WIND CHILL INDEX
   HX - HEAT INDEX
  VSB - VISIBILITY
$$



USA.gov is the U.S. government's official web portal to all federal, state and local government web resources and services.